Retour au catalogue

SL-12 R/B

AUX MOTOR

ActifHEO
NORAD 15054·ROCKET BODY·🇷🇺 Russia

Lancé May 19, 1984 depuis Baikonur Cosmodrome

Loading…

Prochains Passages (prochaines 24 heures)

TLE

FraisSource: Space-Track

Époque: Sep 14, 2026, 09:32 UTC

1 15054U 84047H   26257.39743147  .00004042  00000-0  54209-3 0  9991
2 15054  52.0188  31.2951 4670383 262.7107  43.9464  6.19095598698845

Suivez SL-12 R/B en temps réel avec AllMySat

Download on the App Store